User: anonymous   Login
Location: Unspecified
(0.0000°N, 0.0000°E)
Time: 21:26:29
(UTC+02:00)
Language:

Cosmos 540 Rocket - Orbit

View from above orbital plane
View from above orbital plane
View from above satellite
View from above satellite

Ground track
Ground track

The orbit data is extracted from the following two-line orbital elements,

1 06324U 72104B   15212.42204782  .00000118  00000-0  42917-4 0  9996
2 06324 074.0781 298.5348 0010185 257.6953 102.3064 14.43210001236491
Epoch (UTC): 31 July 2015 10:07:44
Eccentricity: 0.0010185
inclination: 74.0781°
perigee height: 740 km
apogee height: 755 km
right ascension of ascending node: 298.5348°
argument of perigee: 257.6953°
revolutions per day: 14.43210001
mean anomaly at epoch: 102.3064°
orbit number at epoch: 23649

The dashed part of the orbit path shows where the satellite is in the earth's shadow,  

DLR